Flag for Poland Weather past 2 weeks in Zielona Góra, Poland

Now
63 °F

Overcast.


Feels Like: 63 °F
Forecast: 48 / 68 °F
Wind: 1 mph from Southwest

Location: Zielona Gora

Current Time: May 23, 2015 at 11:32:00 AM

Latest Report: May 23, 2015 at 10:00 AM


Visibility: 19 mi

Pressure: 30.11 "Hg

Humidity: 44%

Dew point: 40 °F

Location of Zielona GóraLocation

Historic Weather in Zielona Góra — Graph

°F

Zielona Góra temperature yesterday

Maximum temperature yesterday: 66 °F (at 4:00 PM)
Minimum temperature yesterday: 46 °F (at 5:00 AM)
Average temperature yesterday: 56 °F

Past Weeks' High & Low Weather Summary

 TemperatureHumidityPressure
High74 °F (May 12, 3:00 PM)95% (May 10, 12:00 AM)30.42 "Hg (May 10, 12:00 AM)
Low44 °F (May 11, 6:00 AM)25% (May 11, 3:00 PM)29.64 "Hg (May 19, 5:00 AM)
Average56 °F59%30.05 "Hg
* Reported May 8 10:00 AM — May 23 10:00 AM, Zielona Góra, Weather by CustomWeather, © 2015

Note: Actual official high and low records may vary slightly from our data, if they occured in-between our weather recording intervals... More about our weather records

Advertising

Zielona Góra weather history for previous 24 hours

 ConditionsComfort  
Time TempWeatherWind HumidityBarometerVisibility
10:00 AM
Sat, May 23
63 °FOvercast.1 mph44%30.11 "Hg19 mi
9:00 AM58 °FOvercast.1 mph50%30.12 "Hg19 mi
8:00 AM56 °FOvercast.2 mph56%30.12 "Hg19 mi
7:00 AM54 °FOvercast.1 mph60%30.13 "Hg22 mi
6:00 AM54 °FOvercast.2 mph54%30.13 "Hg25 mi
5:00 AM53 °FPassing clouds.2 mph56%30.13 "Hg25 mi
4:00 AM53 °FPassing clouds.2 mph53%30.14 "Hg25 mi
3:00 AM55 °FPassing clouds.2 mph51%30.15 "Hg25 mi
2:00 AM54 °FPassing clouds.1 mph51%30.17 "Hg25 mi
1:00 AM56 °FPassing clouds.1 mph47%30.18 "Hg31 mi
12:00 AM55 °FPassing clouds.1 mph46%30.19 "Hg31 mi
11:00 PM
Fri, May 22
58 °FOvercast.2 mph40%30.19 "Hg31 mi
10:00 PM58 °FOvercast.2 mph41%30.19 "Hg31 mi
9:00 PM59 °FOvercast.2 mph41%30.19 "Hg31 mi
8:00 PM62 °FOvercast.2 mph38%30.19 "Hg28 mi
7:00 PM64 °FPartly sunny.2 mph35%30.19 "Hg25 mi
6:00 PM63 °FPartly sunny.2 mph35%30.20 "Hg25 mi
5:00 PM65 °FPartly sunny.2 mph34%30.21 "Hg25 mi
4:00 PM66 °FPartly sunny.2 mph32%30.22 "Hg25 mi
3:00 PM65 °FPartly sunny.3 mph30%30.24 "Hg25 mi
2:00 PM64 °FPartly sunny.3 mph30%30.25 "Hg22 mi
1:00 PM62 °FPartly sunny.2 mph33%30.27 "Hg25 mi
12:00 PM60 °FScattered clouds.2 mph40%30.29 "Hg22 mi
11:00 AM59 °FScattered clouds.2 mph42%30.31 "Hg25 mi
Weather by CustomWeather, © 2015

See weather overviewHow to use our weather pages